When you browse on this site, cookies collect data to enhance your experience and personalize the content and advertising you see.
Visit our Privacy Policy to learn more. By continuing to use the site, you agree to this use of cookies and data.
  • In Hungary
  • List of Countries
  • For 7 days
  • Water Temperature
  • Satellite Maps
  • Weather Map
  • News
  • Weather Widgets
  • user-avatar
    Login

    Hourly Weather Victoria

    Today, 20 July, Saturday

    Time Temperature Precipitation Wind Pressure Humidity
    00:00 +14°C° 0 mm 1 mps 759 mmHg 93%
    01:00 +14°C° 0 mm 1 mps 759 mmHg 94%
    02:00 +14°C° 0 mm 1 mps 758 mmHg 94%
    03:00 +14°C° 0 mm 1 mps 758 mmHg 94%
    04:00 +14°C° 0 mm 2 mps 758 mmHg 94%
    05:00 +15°C° 0 mm 2 mps 758 mmHg 94%
    06:00 +15°C° 0.1 mm 2 mps 758 mmHg 95%
    07:00 +16°C° 0.1 mm 3 mps 758 mmHg 95%
    08:00 +16°C° 0.1 mm 3 mps 758 mmHg 96%
    09:00 +18°C° 0 mm 3 mps 757 mmHg 91%
    10:00 +19°C° 0 mm 4 mps 757 mmHg 87%
    11:00 +20°C° 0 mm 4 mps 757 mmHg 82%
    12:00 +21°C° 0 mm 5 mps 755 mmHg 79%
    13:00 +23°C° 0 mm 5 mps 754 mmHg 76%
    14:00 +25°C° 0 mm 5 mps 753 mmHg 74%
    15:00 +23°C° 0 mm 5 mps 752 mmHg 75%
    16:00 +23°C° 0 mm 5 mps 752 mmHg 77%
    17:00 +22°C° 0 mm 4 mps 751 mmHg 78%
    18:00 +22°C° 0 mm 5 mps 751 mmHg 78%
    19:00 +22°C° 0 mm 5 mps 751 mmHg 78%
    20:00 +22°C° 0 mm 6 mps 751 mmHg 78%
    21:00 +22°C° 0 mm 6 mps 750 mmHg 77%
    22:00 +21°C° 0 mm 6 mps 750 mmHg 77%
    23:00 +21°C° 0 mm 7 mps 750 mmHg 76%

    Tomorrow, 21 July, Sunday

    Time Temperature Precipitation Wind Pressure Humidity
    00:00 +21°C° 0 mm 7 mps 749 mmHg 76%
    01:00 +21°C° 0 mm 6 mps 749 mmHg 76%
    02:00 +21°C° 0 mm 6 mps 748 mmHg 76%
    03:00 +22°C° 0 mm 7 mps 748 mmHg 73%
    04:00 +22°C° 0 mm 7 mps 748 mmHg 70%
    05:00 +23°C° 0 mm 7 mps 747 mmHg 68%
    06:00 +23°C° 0 mm 7 mps 747 mmHg 68%
    07:00 +23°C° 0 mm 6 mps 748 mmHg 68%
    08:00 +23°C° 0 mm 6 mps 748 mmHg 68%
    09:00 +24°C° 0 mm 6 mps 748 mmHg 63%
    10:00 +26°C° 0 mm 7 mps 748 mmHg 59%
    11:00 +28°C° 0 mm 8 mps 749 mmHg 54%
    12:00 +28°C° 0 mm 7 mps 748 mmHg 52%
    13:00 +29°C° 0 mm 6 mps 748 mmHg 50%
    14:00 +30°C° 0 mm 6 mps 747 mmHg 48%
    15:00 +29°C° 0 mm 5 mps 748 mmHg 53%
    16:00 +27°C° 0 mm 4 mps 749 mmHg 58%
    17:00 +26°C° 0 mm 3 mps 750 mmHg 63%
    18:00 +21°C° 0.1 mm 4 mps 751 mmHg 62%
    19:00 +17°C° 0.1 mm 6 mps 752 mmHg 61%
    20:00 +12°C° 0.1 mm 8 mps 753 mmHg 60%
    21:00 +12°C° 0.2 mm 7 mps 754 mmHg 55%
    22:00 +13°C° 0.2 mm 6 mps 755 mmHg 50%
    23:00 +13°C° 0.2 mm 6 mps 756 mmHg 45%

    Day after tomorrow, 22 July, Monday

    Time Temperature Precipitation Wind Pressure Humidity
    00:00 +13°C° 0 mm 5 mps 757 mmHg 46%
    01:00 +13°C° 0 mm 4 mps 757 mmHg 46%
    02:00 +13°C° 0 mm 3 mps 758 mmHg 46%
    03:00 +13°C° 0 mm 3 mps 758 mmHg 47%
    04:00 +13°C° 0 mm 3 mps 758 mmHg 49%
    05:00 +12°C° 0 mm 3 mps 759 mmHg 50%
    06:00 +12°C° 0.1 mm 3 mps 759 mmHg 53%
    07:00 +12°C° 0.1 mm 3 mps 760 mmHg 55%
    08:00 +13°C° 0.1 mm 2 mps 761 mmHg 58%
    09:00 +12°C° 0 mm 3 mps 761 mmHg 55%
    10:00 +12°C° 0 mm 3 mps 762 mmHg 52%
    11:00 +12°C° 0 mm 3 mps 763 mmHg 49%
    12:00 +12°C° 0 mm 4 mps 762 mmHg 47%
    13:00 +13°C° 0 mm 4 mps 762 mmHg 46%
    14:00 +13°C° 0 mm 4 mps 762 mmHg 45%
    15:00 +12°C° 0 mm 4 mps 762 mmHg 47%
    16:00 +11°C° 0 mm 3 mps 762 mmHg 49%
    17:00 +10°C° 0 mm 2 mps 763 mmHg 51%
    18:00 +10°C° 0 mm 2 mps 763 mmHg 54%
    19:00 +9°C° 0 mm 2 mps 763 mmHg 57%
    20:00 +8°C° 0 mm 2 mps 763 mmHg 60%
    21:00 +8°C° 0 mm 2 mps 764 mmHg 61%
    22:00 +8°C° 0 mm 2 mps 764 mmHg 62%
    23:00 +8°C° 0 mm 2 mps 764 mmHg 63%

    23 July, Tuesday

    Time Temperature Precipitation Wind Pressure Humidity
    00:00 +8°C° 0 mm 2 mps 764 mmHg 63%
    01:00 +8°C° 0 mm 2 mps 764 mmHg 64%
    02:00 +8°C° 0 mm 2 mps 764 mmHg 64%
    03:00 +8°C° 0 mm 2 mps 764 mmHg 62%
    04:00 +8°C° 0 mm 3 mps 764 mmHg 60%
    05:00 +8°C° 0 mm 3 mps 764 mmHg 58%
    06:00 +8°C° 0 mm 3 mps 765 mmHg 57%
    07:00 +8°C° 0 mm 3 mps 765 mmHg 56%
    08:00 +8°C° 0 mm 3 mps 766 mmHg 55%
    09:00 +10°C° 0 mm 4 mps 766 mmHg 49%
    10:00 +11°C° 0 mm 4 mps 766 mmHg 42%
    11:00 +13°C° 0 mm 4 mps 767 mmHg 36%
    12:00 +13°C° 0 mm 4 mps 766 mmHg 34%
    13:00 +14°C° 0 mm 4 mps 766 mmHg 33%
    14:00 +14°C° 0 mm 4 mps 766 mmHg 31%
    15:00 +13°C° 0 mm 4 mps 766 mmHg 35%
    16:00 +12°C° 0 mm 3 mps 766 mmHg 38%
    17:00 +11°C° 0 mm 3 mps 767 mmHg 42%
    18:00 +10°C° 0 mm 2 mps 767 mmHg 45%
    19:00 +9°C° 0 mm 2 mps 767 mmHg 47%
    20:00 +8°C° 0 mm 2 mps 768 mmHg 50%
    21:00 +7°C° 0 mm 2 mps 768 mmHg 53%
    22:00 +7°C° 0 mm 2 mps 768 mmHg 57%
    23:00 +6°C° 0 mm 2 mps 768 mmHg 60%

    24 July, Wednesday

    Time Temperature Precipitation Wind Pressure Humidity
    00:00 +5°C° 0 mm 2 mps 769 mmHg 61%
    01:00 +6°C° 0 mm 1 mps 769 mmHg 63%
    02:00 +5°C° 0 mm 1 mps 770 mmHg 64%
    03:00 +5°C° 0 mm 1 mps 770 mmHg 64%
    04:00 +5°C° 0 mm 1 mps 770 mmHg 65%
    05:00 +4°C° 0 mm 2 mps 770 mmHg 65%
    06:00 +4°C° 0 mm 2 mps 770 mmHg 64%
    07:00 +5°C° 0 mm 2 mps 770 mmHg 63%
    08:00 +5°C° 0 mm 2 mps 771 mmHg 63%
    09:00 +7°C° 0 mm 2 mps 771 mmHg 56%
    10:00 +10°C° 0 mm 2 mps 771 mmHg 49%
    11:00 +12°C° 0 mm 3 mps 772 mmHg 42%
    12:00 +13°C° 0 mm 3 mps 771 mmHg 40%
    13:00 +13°C° 0 mm 3 mps 771 mmHg 39%
    14:00 +14°C° 0 mm 3 mps 771 mmHg 37%
    15:00 +13°C° 0 mm 2 mps 771 mmHg 42%
    16:00 +12°C° 0 mm 2 mps 771 mmHg 48%
    17:00 +10°C° 0 mm 2 mps 771 mmHg 53%
    18:00 +9°C° 0 mm 2 mps 771 mmHg 58%
    19:00 +9°C° 0 mm 1 mps 771 mmHg 62%
    20:00 +8°C° 0 mm 1 mps 772 mmHg 67%
    21:00 +6°C° 0 mm 2 mps 771 mmHg 71%
    22:00 +5°C° 0 mm 2 mps 771 mmHg 74%
    23:00 +5°C° 0 mm 2 mps 771 mmHg 78%

    25 July, Thursday

    Time Temperature Precipitation Wind Pressure Humidity
    00:00 +4°C° 0 mm 2 mps 772 mmHg 83%
    01:00 +4°C° 0 mm 2 mps 772 mmHg 88%
    02:00 +4°C° 0 mm 2 mps 772 mmHg 93%
    03:00 +4°C° 0 mm 2 mps 772 mmHg 94%
    04:00 +4°C° 0 mm 2 mps 771 mmHg 95%
    05:00 +3°C° 0 mm 2 mps 771 mmHg 96%
    06:00 +4°C° 0 mm 2 mps 771 mmHg 92%
    07:00 +4°C° 0 mm 2 mps 771 mmHg 89%
    08:00 +4°C° 0 mm 3 mps 772 mmHg 86%
    09:00 +7°C° 0 mm 3 mps 772 mmHg 77%
    10:00 +8°C° 0 mm 3 mps 771 mmHg 68%
    11:00 +10°C° 0 mm 3 mps 771 mmHg 60%
    12:00 +12°C° 0 mm 2 mps 771 mmHg 59%
    13:00 +13°C° 0 mm 2 mps 770 mmHg 58%
    14:00 +13°C° 0 mm 2 mps 769 mmHg 57%
    15:00 +13°C° 0 mm 2 mps 769 mmHg 63%
    16:00 +12°C° 0 mm 2 mps 769 mmHg 68%
    17:00 +11°C° 0 mm 1 mps 769 mmHg 74%
    18:00 +11°C° 0 mm 1 mps 769 mmHg 78%
    19:00 +10°C° 0 mm 1 mps 769 mmHg 82%
    20:00 +9°C° 0 mm 2 mps 769 mmHg 86%
    21:00 +9°C° 0 mm 1 mps 769 mmHg 88%
    22:00 +9°C° 0 mm 1 mps 769 mmHg 90%
    23:00 +9°C° 0 mm 1 mps 769 mmHg 93%
    Show more